Hourly Weather Bolshie Smenki

Today, 1 August, Sunday

Time Temperature Precipitation Wind Pressure Humidity
00:00 +14°C° 0 mm 3 mps 741 mmHg 90%
01:00 +14°C° 0 mm 3 mps 741 mmHg 92%
02:00 +13°C° 0 mm 3 mps 742 mmHg 95%
03:00 +14°C° 0 mm 3 mps 742 mmHg 93%
04:00 +15°C° 0 mm 2 mps 742 mmHg 92%
05:00 +15°C° 0 mm 2 mps 742 mmHg 90%
06:00 +17°C° 0 mm 3 mps 743 mmHg 81%
07:00 +19°C° 0 mm 3 mps 743 mmHg 71%
08:00 +22°C° 0 mm 4 mps 743 mmHg 61%
09:00 +23°C° 0 mm 4 mps 743 mmHg 57%
10:00 +25°C° 0 mm 5 mps 743 mmHg 52%
11:00 +26°C° 0 mm 5 mps 743 mmHg 47%
12:00 +26°C° 0 mm 5 mps 742 mmHg 48%
13:00 +26°C° 0 mm 5 mps 742 mmHg 50%
14:00 +25°C° 0 mm 5 mps 742 mmHg 51%
15:00 +24°C° 0 mm 6 mps 742 mmHg 55%
16:00 +23°C° 0 mm 6 mps 742 mmHg 59%
17:00 +23°C° 0 mm 6 mps 742 mmHg 63%
18:00 +21°C° 0.5 mm 5 mps 742 mmHg 73%
19:00 +19°C° 0.5 mm 3 mps 742 mmHg 84%
20:00 +18°C° 0.5 mm 2 mps 742 mmHg 94%
21:00 +17°C° 0.1 mm 2 mps 742 mmHg 95%
22:00 +17°C° 0.1 mm 2 mps 742 mmHg 95%
23:00 +17°C° 0.1 mm 2 mps 742 mmHg 96%

Tomorrow, 2 August, Monday

Time Temperature Precipitation Wind Pressure Humidity
00:00 +17°C° 0 mm 2 mps 742 mmHg 96%
01:00 +17°C° 0 mm 2 mps 742 mmHg 96%
02:00 +17°C° 0 mm 2 mps 742 mmHg 96%
03:00 +17°C° 0 mm 2 mps 742 mmHg 95%
04:00 +17°C° 0 mm 2 mps 742 mmHg 94%
05:00 +17°C° 0 mm 2 mps 742 mmHg 94%
06:00 +18°C° 0 mm 2 mps 742 mmHg 86%
07:00 +21°C° 0 mm 1 mps 742 mmHg 78%
08:00 +23°C° 0 mm 1 mps 742 mmHg 71%
09:00 +25°C° 0 mm 2 mps 742 mmHg 60%
10:00 +27°C° 0 mm 2 mps 742 mmHg 49%
11:00 +28°C° 0 mm 3 mps 742 mmHg 38%
12:00 +29°C° 0 mm 3 mps 741 mmHg 36%
13:00 +30°C° 0 mm 3 mps 741 mmHg 34%
14:00 +31°C° 0 mm 3 mps 740 mmHg 33%
15:00 +28°C° 0.7 mm 3 mps 739 mmHg 49%
16:00 +25°C° 0.7 mm 4 mps 739 mmHg 66%
17:00 +21°C° 0.7 mm 4 mps 738 mmHg 83%
18:00 +20°C° 1.4 mm 3 mps 738 mmHg 87%
19:00 +19°C° 1.4 mm 3 mps 738 mmHg 92%
20:00 +18°C° 1.4 mm 3 mps 738 mmHg 96%
21:00 +18°C° 0.2 mm 3 mps 737 mmHg 96%
22:00 +18°C° 0.2 mm 3 mps 737 mmHg 96%
23:00 +18°C° 0.2 mm 4 mps 736 mmHg 97%

Day after tomorrow, 3 August, Tuesday

Time Temperature Precipitation Wind Pressure Humidity
00:00 +18°C° 0.8 mm 4 mps 736 mmHg 97%
01:00 +18°C° 0.8 mm 3 mps 736 mmHg 97%
02:00 +18°C° 0.8 mm 3 mps 736 mmHg 97%
03:00 +18°C° 0.5 mm 3 mps 736 mmHg 96%
04:00 +18°C° 0.5 mm 3 mps 737 mmHg 96%
05:00 +17°C° 0.5 mm 4 mps 737 mmHg 95%
06:00 +17°C° 0.1 mm 4 mps 737 mmHg 94%
07:00 +17°C° 0.1 mm 4 mps 738 mmHg 92%
08:00 +17°C° 0.1 mm 4 mps 738 mmHg 91%
09:00 +18°C° 0 mm 4 mps 738 mmHg 85%
10:00 +18°C° 0 mm 4 mps 739 mmHg 80%
11:00 +19°C° 0 mm 4 mps 740 mmHg 74%
12:00 +19°C° 0.1 mm 4 mps 740 mmHg 73%
13:00 +20°C° 0.1 mm 4 mps 740 mmHg 73%
14:00 +20°C° 0.1 mm 4 mps 740 mmHg 72%
15:00 +20°C° 0.2 mm 4 mps 740 mmHg 70%
16:00 +20°C° 0.2 mm 3 mps 741 mmHg 69%
17:00 +20°C° 0.2 mm 3 mps 741 mmHg 67%
18:00 +19°C° 0 mm 3 mps 741 mmHg 70%
19:00 +18°C° 0 mm 3 mps 742 mmHg 72%
20:00 +17°C° 0 mm 3 mps 742 mmHg 75%
21:00 +16°C° 0 mm 3 mps 742 mmHg 77%
22:00 +14°C° 0 mm 3 mps 743 mmHg 80%
23:00 +14°C° 0 mm 3 mps 743 mmHg 83%

4 August, Wednesday

Time Temperature Precipitation Wind Pressure Humidity
00:00 +13°C° 0 mm 3 mps 744 mmHg 86%
01:00 +13°C° 0 mm 2 mps 744 mmHg 89%
02:00 +12°C° 0 mm 2 mps 745 mmHg 92%
03:00 +12°C° 0 mm 2 mps 745 mmHg 91%
04:00 +12°C° 0 mm 2 mps 745 mmHg 90%
05:00 +13°C° 0 mm 2 mps 746 mmHg 88%
06:00 +13°C° 0 mm 3 mps 746 mmHg 77%
07:00 +16°C° 0 mm 3 mps 746 mmHg 66%
08:00 +18°C° 0 mm 4 mps 747 mmHg 55%
09:00 +19°C° 0 mm 4 mps 747 mmHg 50%
10:00 +20°C° 0 mm 3 mps 747 mmHg 45%
11:00 +21°C° 0 mm 3 mps 747 mmHg 40%
12:00 +22°C° 0 mm 3 mps 747 mmHg 38%
13:00 +22°C° 0 mm 3 mps 748 mmHg 35%
14:00 +24°C° 0 mm 3 mps 748 mmHg 33%
15:00 +24°C° 0 mm 3 mps 748 mmHg 35%
16:00 +22°C° 0 mm 3 mps 748 mmHg 36%
17:00 +22°C° 0 mm 3 mps 748 mmHg 38%
18:00 +20°C° 0 mm 2 mps 748 mmHg 43%
19:00 +19°C° 0 mm 2 mps 749 mmHg 48%
20:00 +17°C° 0 mm 2 mps 749 mmHg 53%
21:00 +18°C° 0 mm 1 mps 749 mmHg 55%
22:00 +16°C° 0 mm 1 mps 749 mmHg 57%
23:00 +15°C° 0 mm 1 mps 750 mmHg 59%

5 August, Thursday

Time Temperature Precipitation Wind Pressure Humidity
00:00 +14°C° 0 mm 1 mps 750 mmHg 61%
01:00 +14°C° 0 mm 1 mps 750 mmHg 64%
02:00 +13°C° 0 mm 1 mps 750 mmHg 67%
03:00 +13°C° 0 mm 1 mps 750 mmHg 65%
04:00 +14°C° 0 mm 1 mps 750 mmHg 64%
05:00 +14°C° 0 mm 1 mps 750 mmHg 62%
06:00 +16°C° 0 mm 1 mps 750 mmHg 56%
07:00 +19°C° 0 mm 1 mps 750 mmHg 51%
08:00 +21°C° 0 mm 1 mps 750 mmHg 45%
09:00 +22°C° 0 mm 1 mps 750 mmHg 42%
10:00 +23°C° 0 mm 1 mps 750 mmHg 39%
11:00 +24°C° 0 mm 2 mps 750 mmHg 36%
12:00 +24°C° 0 mm 2 mps 750 mmHg 38%
13:00 +24°C° 0 mm 2 mps 749 mmHg 39%
14:00 +24°C° 0 mm 2 mps 749 mmHg 40%
15:00 +23°C° 0 mm 2 mps 749 mmHg 44%
16:00 +23°C° 0 mm 1 mps 749 mmHg 47%
17:00 +22°C° 0 mm 1 mps 749 mmHg 51%
18:00 +21°C° 0 mm 1 mps 749 mmHg 56%
19:00 +18°C° 0 mm 2 mps 749 mmHg 61%
20:00 +17°C° 0 mm 2 mps 749 mmHg 66%
21:00 +17°C° 0.1 mm 2 mps 749 mmHg 72%
22:00 +16°C° 0.1 mm 1 mps 749 mmHg 77%
23:00 +16°C° 0.1 mm 1 mps 749 mmHg 83%

6 August, Friday

Time Temperature Precipitation Wind Pressure Humidity
00:00 +15°C° 0.2 mm 2 mps 748 mmHg 87%
01:00 +15°C° 0.2 mm 2 mps 748 mmHg 90%
02:00 +14°C° 0.2 mm 3 mps 748 mmHg 94%
03:00 +14°C° 0.1 mm 3 mps 748 mmHg 94%
04:00 +14°C° 0.1 mm 3 mps 748 mmHg 94%
05:00 +14°C° 0.1 mm 3 mps 748 mmHg 94%
06:00 +14°C° 0.1 mm 3 mps 748 mmHg 94%
07:00 +14°C° 0.1 mm 4 mps 748 mmHg 95%
08:00 +14°C° 0.1 mm 4 mps 747 mmHg 95%
09:00 +14°C° 0.6 mm 5 mps 747 mmHg 95%
10:00 +14°C° 0.6 mm 5 mps 747 mmHg 95%
11:00 +14°C° 0.6 mm 5 mps 746 mmHg 95%
12:00 +14°C° 1.7 mm 5 mps 746 mmHg 96%
13:00 +14°C° 1.7 mm 5 mps 745 mmHg 97%
14:00 +14°C° 1.7 mm 6 mps 745 mmHg 97%
15:00 +14°C° 0 mm 6 mps 745 mmHg 96%
16:00 +15°C° 0 mm 6 mps 744 mmHg 95%
17:00 +15°C° 0 mm 6 mps 744 mmHg 94%
18:00 +15°C° 0.1 mm 6 mps 743 mmHg 93%
19:00 +15°C° 0.1 mm 6 mps 743 mmHg 92%
20:00 +15°C° 0.1 mm 6 mps 742 mmHg 91%
21:00 +15°C° 0.1 mm 6 mps 742 mmHg 90%
22:00 +15°C° 0.1 mm 5 mps 742 mmHg 89%
23:00 +15°C° 0.1 mm 5 mps 742 mmHg 88%
Show more

We Need Your Consent

Meteoprog and our Service Providers may store and access personal data such as cookies, device identifiers or other similar technologies on your device and process such data to personalise content and ads, as well as provide social media features and to analyse the traffic.

  • Store and/or access information on your device

    Cookies, device identifiers or other information can be stored or accessed on your device for the purposes indicated above.

  • Personalised ads and content, ad and content measurement, audience insights, and products development

    Ads and content can be personalised based on a profile. More data can be added to better personalise ads and content. Ad and content performance can be measured. Insights about the audience who saw the ads and content can be derived. Such data can be used to develop or improve user’s experience, systems and software.

By clicking ‘I Agree’ you will allow the use of indicated cookies, device identifiers, web beacons or other similar technologies. Your settings can be changed in the browser on your device.

For certain purposes, legitimate interests may be relied on, rather than consent. You can read more about this in our Privacy and Cookie Policy.